Temp
-4 -4 -5 -5 -5 -5 -5 -5 -5 -5 -5 -5 -6 -6 -5 -6 -6 -6 -6 -6 -6 -6 -6 -6 -6 -6 -6 -7 -7 -7 -7 -7 -7 -7 -7 -7 -7 -7 -7 -7 -7 -7
-4 -4 -5 -5 -5 -5 -5 -5 -5 -5 -5 -5 -5 -5 -5 -6 -6 -6 -6 -6 -6 -6 -6 -7 -6 -6 -6 -7 -7 -7 -7 -7 -7 -7 -7 -7 -7 -7 -7 -7 -7 -7
-4 -4 -4 -5 -5 -5 -5 -5 -5 -5 -5 -5 -5 -5 -5 -5 -6 -6 -6 -6 -6 -6 -6 -7 -7 -6 -6 -7 -7 -7 -7 -7 -7 -7 -7 -7 -7 -7 -7 -7 -7 -7
-4 -4 -4 -4 -4 -4 -4 -4 -4 -5 -5 -5 -5 -5 -5 -5 -6 -6 -6 -6 -6 -6 -6 -7 -7 -7 -7 -7 -7 -7 -7 -7 -7 -7 -7 -7 -7 -7 -7 -7 -7 -7
-4 -4 -4 -4 -4 -4 -4 -4 -4 -5 -5 -5 -5 -5 -5 -5 -5 -6 -6 -6 -6 -6 -6 -7 -7 -7 -7 -7 -7 -7 -7 -7 -7 -7 -7 -7 -7 -7 -7 -7 -7 -8
-4 -4 -4 -4 -4 -4 -4 -5 -5 -5 -5 -5 -5 -5 -5 -5 -5 -6 -6 -6 -6 -6 -6 -7 -7 -7 -7 -7 -7 -7 -7 -7 -7 -7 -7 -7 -7 -7 -7 -7 -7 -8
-4 -4 -4 -4 -4 -4 -4 -5 -5 -5 -5 -5 -5 -5 -5 -5 -5 -5 -6 -6 -6 -6 -6 -7 -7 -7 -7 -7 -7 -7 -7 -7 -7 -7 -7 -7 -7 -7 -7 -8 -8 -8
-4 -4 -4 -4 -4 -4 -4 -5 -5 -5 -5 -5 -5 -5 -5 -5 -5 -5 -6 -6 -6 -6 -6 -7 -7 -7 -7 -7 -7 -7 -7 -7 -7 -7 -7 -7 -7 -7 -8 -8 -8 -8
-4 -4 -4 -4 -4 -5 -5 -5 -5 -5 -5 -5 -5 -5 -5 -5 -5 -5 -6 -6 -6 -6 -6 -7 -7 -7 -7 -7 -7 -7 -7 -7 -7 -7 -7 -7 -7 -7 -8 -8 -8 -8
-4 -4 -4 -4 -5 -5 -5 -5 -5 -5 -5 -5 -5 -5 -5 -5 -6 -6 -6 -6 -6 -6 -6 -7 -7 -7 -7 -8 -8 -7 -7 -7 -8 -8 -8 -7 -7 -7 -8 -8 -8 -8
-4 -4 -4 -5 -5 -5 -5 -5 -5 -5 -5 -5 -5 -5 -5 -6 -6 -6 -6 -6 -6 -6 -7 -7 -7 -7 -8 -8 -8 -8 -7 -7 -8 -8 -8 -8 -8 -7 -7 -8 -8 -8
-4 -4 -5 -5 -5 -5 -5 -5 -5 -5 -5 -5 -5 -5 -5 -6 -6 -6 -6 -6 -7 -7 -7 -7 -7 -7 -8 -8 -8 -8 -7 -7 -7 -8 -8 -8 -8 -8 -8 -8 -8 -8
-5 -5 -5 -5 -5 -5 -5 -5 -5 -5 -5 -5 -5 -5 -5 -6 -6 -6 -7 -7 -7 -7 -7 -7 -8 -8 -8 -8 -8 -8 -7 -7 -7 -8 -8 -8 -8 -8 -8 -8 -8 -8
-5 -5 -5 -5 -5 -5 -5 -5 -5 -5 -5 -5 -5 -5 -5 -6 -6 -6 -7 -7 -7 -7 -7 -8 -8 -8 -8 -8 -8 -7 -7 -7 -7 -8 -8 -8 -8 -8 -8 -8 -8 -8
-5 -5 -5 -5 -5 -5 -5 -5 -5 -5 -5 -5 -5 -5 -5 -6 -6 -6 -7 -7 -7 -7 -7 -7 -7 -8 -8 -8 -8 -7 -7 -7 -7 -8 -8 -8 -8 -8 -8 -8 -8 -8
-5 -5 -5 -5 -5 -5 -5 -5 -5 -5 -5 -5 -5 -5 -5 -6 -6 -6 -6 -7 -7 -7 -7 -7 -7 -7 -8 -8 -7 -7 -7 -7 -7 -8 -8 -8 -8 -8 -8 -8 -8 -8
-5 -5 -5 -5 -5 -5 -5 -5 -5 -5 -5 -5 -5 -5 -6 -6 -6 -6 -6 -7 -7 -7 -7 -7 -7 -7 -8 -7 -7 -7 -7 -7 -7 -8 -8 -8 -8 -8 -8 -8 -8 -8
-5 -5 -5 -5 -5 -5 -5 -6 -6 -6 -6 -6 -6 -6 -6 -6 -6 -6 -7 -7 -7 -7 -7 -7 -7 -7 -7 -7 -7 -7 -7 -7 -7 -8 -8 -8 -8 -8 -8 -8 -8 -8
-5 -5 -5 -5 -5 -6 -6 -6 -6 -6 -6 -6 -6 -6 -6 -6 -7 -7 -7 -7 -7 -7 -7 -7 -7 -7 -7 -7 -7 -7 -7 -7 -7 -7 -8 -8 -8 -8 -8 -8 -8 -8
-5 -5 -5 -5 -6 -6 -6 -6 -6 -6 -6 -6 -6 -6 -7 -7 -7 -7 -7 -7 -7 -7 -7 -7 -7 -8 -8 -8 -8 -8 -8 -8 -7 -7 -7 -7 -7 -7 -8 -8 -8 -8
-5 -5 -5 -6 -6 -6 -6 -6 -6 -6 -6 -7 -7 -7 -7 -7 -7 -7 -7 -7 -7 -7 -7 -7 -8 -8 -8 -8 -8 -8 -8 -8 -8 -7 -7 -7 -7 -8 -8 -8 -8 -8
-6 -6 -6 -6 -6 -6 -6 -6 -7 -7 -7 -7 -7 -7 -7 -7 -7 -7 -7 -7 -7 -7 -7 -7 -7 -7 -8 -8 -8 -8 -8 -8 -8 -8 -7 -7 -8 -8 -8 -8 -8 -8
-6 -6 -6 -6 -6 -6 -6 -7 -7 -7 -7 -7 -7 -7 -7 -7 -7 -7 -7 -7 -7 -7 -7 -7 -7 -7 -7 -7 -8 -8 -8 -8 -8 -8 -8 -8 -8 -8 -8 -8 -8 -8
-6 -6 -6 -6 -6 -6 -6 -7 -7 -7 -7 -7 -7 -7 -7 -7 -7 -7 -7 -7 -7 -7 -7 -7 -7 -7 -7 -7 -7 -8 -8 -8 -8 -8 -8 -8 -8 -7 -8 -8 -8 -8
-6 -6 -6 -6 -6 -6 -6 -6 -6 -6 -6 -6 -6 -7 -7 -7 -7 -7 -7 -7 -7 -7 -7 -7 -7 -7 -7 -7 -7 -7 -7 -8 -8 -8 -8 -7 -7 -7 -7 -7 -7 -7
-6 -6 -7 -6 -6 -6 -6 -6 -6 -6 -6 -6 -6 -7 -7 -7 -7 -7 -7 -7 -7 -7 -7 -7 -7 -7 -7 -8 -8 -7 -7 -7 -7 -8 -7 -7 -8 -8 -8 -7 -7 -7
Height
5920 5921 5922 5924 5925 5926 5927 5928 5930 5931 5932 5933 5934 5935 5935 5936 5937 5937 5937 5937 5938 5938 5937 5937 5937 5937 5937 5937 5938 5938 5938 5937 5937 5937 5937 5937 5937 5936 5936 5935 5935 5934
5920 5921 5922 5923 5924 5925 5926 5927 5929 5930 5931 5932 5933 5934 5934 5935 5936 5936 5936 5936 5937 5937 5937 5937 5937 5937 5937 5937 5937 5937 5937 5937 5937 5937 5937 5937 5937 5936 5936 5936 5935 5935
5919 5920 5921 5922 5923 5924 5925 5927 5928 5929 5930 5931 5931 5932 5933 5934 5934 5935 5935 5935 5936 5936 5936 5936 5936 5936 5936 5936 5936 5936 5937 5937 5937 5936 5936 5937 5937 5936 5936 5936 5936 5935
5918 5919 5921 5922 5923 5924 5925 5926 5927 5928 5929 5929 5930 5931 5932 5933 5933 5933 5934 5934 5934 5935 5935 5935 5935 5935 5935 5935 5935 5935 5936 5936 5936 5936 5936 5936 5936 5936 5936 5936 5936 5935
5917 5918 5920 5921 5922 5923 5924 5925 5926 5927 5927 5928 5929 5929 5930 5931 5932 5932 5932 5933 5933 5933 5934 5934 5934 5933 5933 5934 5934 5934 5934 5935 5935 5935 5935 5935 5935 5935 5935 5935 5935 5935
5916 5917 5919 5920 5921 5922 5923 5924 5925 5925 5926 5927 5927 5928 5929 5929 5930 5930 5931 5931 5931 5932 5932 5932 5932 5932 5932 5932 5933 5933 5933 5934 5934 5934 5934 5934 5934 5934 5934 5934 5934 5934
5915 5916 5917 5919 5920 5921 5922 5923 5923 5924 5925 5925 5926 5926 5927 5927 5928 5928 5929 5929 5929 5930 5930 5931 5931 5931 5931 5931 5931 5931 5932 5932 5933 5933 5933 5933 5933 5933 5933 5933 5933 5933
5913 5915 5916 5917 5918 5919 5920 5921 5922 5923 5923 5923 5924 5924 5925 5925 5925 5926 5926 5927 5927 5928 5928 5929 5929 5929 5929 5929 5929 5930 5930 5931 5931 5932 5932 5932 5932 5932 5932 5932 5932 5931
5912 5913 5914 5915 5917 5918 5918 5919 5920 5921 5921 5921 5922 5922 5923 5923 5923 5924 5924 5925 5925 5926 5926 5927 5927 5927 5927 5927 5928 5928 5928 5929 5930 5930 5930 5930 5930 5930 5930 5930 5930 5930
5910 5911 5912 5913 5915 5916 5916 5917 5918 5918 5919 5919 5920 5920 5921 5921 5921 5922 5922 5922 5923 5924 5924 5925 5925 5925 5925 5925 5926 5926 5926 5927 5928 5928 5929 5929 5929 5929 5929 5929 5929 5929
5908 5909 5910 5911 5912 5913 5914 5914 5915 5916 5916 5917 5917 5918 5918 5919 5919 5919 5920 5920 5921 5921 5922 5922 5923 5923 5923 5923 5924 5924 5924 5925 5926 5926 5927 5927 5927 5927 5927 5927 5927 5927
5906 5907 5908 5909 5909 5910 5911 5911 5912 5913 5914 5914 5915 5915 5915 5916 5916 5917 5918 5918 5918 5918 5919 5920 5920 5920 5921 5921 5921 5922 5923 5923 5924 5924 5925 5925 5925 5925 5926 5926 5926 5926
5904 5905 5906 5906 5907 5908 5908 5909 5910 5911 5911 5912 5912 5912 5913 5913 5913 5914 5915 5915 5915 5916 5917 5917 5918 5918 5918 5919 5919 5920 5920 5921 5922 5922 5923 5923 5923 5923 5924 5924 5924 5924
5902 5902 5903 5904 5905 5905 5906 5907 5907 5908 5908 5909 5909 5909 5910 5910 5910 5911 5911 5912 5913 5913 5914 5914 5915 5915 5916 5916 5917 5917 5918 5919 5919 5920 5921 5921 5921 5921 5921 5922 5922 5922
5899 5900 5901 5902 5903 5903 5904 5905 5905 5905 5906 5906 5906 5907 5907 5907 5907 5908 5908 5909 5910 5910 5911 5911 5912 5913 5914 5914 5914 5915 5916 5916 5917 5918 5918 5919 5919 5919 5919 5920 5920 5920
5896 5897 5898 5899 5900 5902 5902 5902 5903 5903 5903 5904 5904 5904 5904 5904 5905 5905 5906 5907 5907 5908 5908 5909 5910 5911 5912 5912 5912 5912 5913 5914 5915 5915 5916 5916 5917 5917 5917 5917 5917 5918
5894 5895 5895 5896 5898 5899 5900 5900 5900 5901 5901 5901 5902 5902 5902 5902 5903 5903 5904 5905 5905 5906 5906 5907 5908 5909 5909 5910 5910 5910 5911 5912 5912 5913 5913 5914 5914 5914 5914 5914 5914 5914
5891 5892 5893 5894 5895 5896 5897 5897 5898 5898 5899 5900 5900 5900 5900 5901 5901 5902 5902 5903 5904 5904 5905 5906 5906 5907 5907 5908 5908 5908 5908 5909 5910 5910 5910 5911 5911 5911 5911 5911 5911 5911
5888 5889 5891 5892 5893 5893 5894 5894 5895 5896 5897 5898 5898 5898 5899 5900 5900 5901 5901 5902 5902 5903 5903 5904 5905 5905 5905 5906 5906 5906 5906 5906 5907 5907 5907 5908 5908 5907 5907 5907 5907 5908
5885 5887 5888 5889 5890 5891 5891 5892 5894 5895 5896 5896 5897 5897 5898 5899 5899 5899 5900 5901 5901 5901 5902 5902 5903 5903 5904 5904 5904 5904 5904 5903 5903 5904 5904 5905 5905 5904 5904 5904 5904 5904
5883 5884 5885 5886 5887 5888 5889 5891 5892 5893 5894 5895 5895 5896 5896 5897 5897 5898 5898 5899 5899 5900 5900 5901 5901 5902 5902 5902 5902 5902 5901 5901 5900 5900 5901 5901 5901 5901 5901 5901 5901 5901
5881 5882 5883 5884 5885 5886 5888 5889 5890 5891 5892 5892 5893 5894 5894 5894 5895 5895 5896 5896 5897 5897 5898 5898 5899 5899 5900 5900 5900 5899 5899 5898 5898 5898 5898 5898 5899 5899 5899 5898 5898 5898
5878 5880 5881 5882 5883 5885 5886 5887 5887 5888 5889 5889 5890 5891 5891 5892 5892 5893 5893 5893 5894 5895 5895 5896 5896 5897 5897 5898 5898 5897 5896 5895 5895 5895 5894 5895 5895 5896 5896 5896 5896 5895
5876 5878 5879 5880 5881 5883 5884 5884 5885 5885 5886 5887 5887 5888 5888 5889 5890 5890 5891 5891 5891 5892 5892 5893 5893 5894 5894 5895 5895 5895 5894 5893 5892 5891 5891 5891 5892 5892 5892 5892 5892 5891
5874 5876 5877 5878 5880 5881 5881 5882 5882 5883 5884 5884 5885 5885 5886 5886 5886 5887 5888 5889 5889 5889 5889 5890 5890 5890 5891 5891 5892 5892 5891 5890 5889 5887 5887 5888 5888 5888 5888 5887 5887 5886
5872 5873 5875 5876 5877 5878 5879 5879 5880 5880 5881 5881 5882 5882 5882 5883 5883 5884 5885 5886 5886 5886 5886 5886 5887 5887 5887 5887 5888 5888 5888 5887 5884 5883 5884 5884 5884 5884 5883 5882 5881 5881
Wind_Speed
20 21 22 22 21 20 19 18 18 17 16 15 14 13 11 9 8 7 6 6 6 8 9 9 8 8 8 8 8 8 8 8 7 7 6 6 7 7 7 7 8 8
21 21 22 22 21 20 19 19 18 17 16 16 15 14 13 11 10 10 9 8 7 8 9 10 10 9 9 8 8 8 8 8 7 7 6 5 5 5 5 6 8 8
21 21 22 22 21 20 19 18 17 17 17 16 16 15 14 13 12 12 11 10 9 9 10 11 11 11 10 10 9 8 8 8 8 8 6 5 4 4 4 5 7 8
22 22 22 22 22 21 19 17 17 17 17 17 17 16 15 14 13 14 14 13 11 10 11 12 12 12 11 11 10 9 8 8 8 9 7 5 4 4 4 5 6 6
22 22 22 23 22 21 20 19 19 19 18 18 19 18 17 15 15 15 15 15 14 13 12 13 13 14 13 12 12 11 9 9 9 10 9 7 5 5 5 6 6 6
22 21 22 22 22 22 21 21 21 21 20 20 20 19 18 18 17 17 17 17 17 15 14 14 14 15 15 14 14 13 11 10 9 10 11 9 7 5 5 6 6 6
22 21 21 21 21 21 21 21 22 21 21 21 21 20 19 19 19 19 19 19 19 18 16 16 16 16 16 16 15 15 13 11 11 11 12 11 9 7 5 5 5 6
22 21 21 20 20 20 20 21 21 21 21 21 21 21 20 20 21 21 20 20 20 20 18 18 18 18 18 17 16 16 15 13 12 12 13 12 11 9 6 5 5 7
22 21 21 20 19 19 19 20 20 20 21 21 21 21 21 21 21 22 21 21 22 21 20 19 19 19 20 19 18 18 17 15 14 13 14 14 13 11 9 7 7 8
22 21 21 21 20 20 20 20 21 21 22 23 23 23 22 22 22 22 22 22 22 21 20 20 20 20 21 20 19 19 18 17 15 14 14 15 15 14 12 11 10 10
22 22 22 22 22 22 22 22 23 23 23 23 24 24 24 24 23 23 22 22 22 22 21 21 21 22 23 22 21 20 19 18 17 16 15 16 17 17 15 13 12 12
22 22 22 22 23 23 23 24 23 23 23 23 23 24 24 24 24 24 24 24 24 23 23 23 23 23 24 24 22 21 20 19 18 17 17 17 18 18 18 16 15 14
22 22 22 23 23 23 24 24 23 22 22 23 23 23 24 24 24 25 25 25 25 25 24 24 24 25 25 24 23 21 20 20 19 17 17 18 18 19 19 18 17 16
23 23 23 23 23 24 23 23 22 21 22 22 22 22 22 23 23 24 25 25 26 26 26 26 25 25 24 23 22 21 20 19 19 18 18 19 19 20 20 20 19 19
24 25 25 24 23 23 22 22 21 21 21 21 21 21 21 21 22 23 24 24 25 25 25 25 24 23 22 21 21 20 19 19 20 19 19 19 20 20 21 22 21 21
26 27 27 25 23 22 21 21 21 21 21 20 20 20 20 20 21 21 21 21 22 22 22 21 20 18 18 19 20 20 20 19 20 20 20 20 20 21 22 22 23 23
28 28 27 26 23 21 21 21 21 20 19 19 18 18 18 18 17 16 17 17 17 17 17 17 15 15 16 17 19 20 20 20 20 21 21 21 21 22 22 23 23 24
28 28 27 25 23 22 21 21 21 20 18 17 16 15 15 14 13 12 12 12 12 13 13 13 13 14 15 17 19 20 21 22 21 22 22 23 23 23 23 24 24 24
27 27 26 25 24 22 22 21 20 19 17 16 15 15 14 13 11 11 10 9 9 9 9 10 11 11 13 15 17 19 21 22 22 22 23 24 24 25 25 25 25 25
27 27 26 26 25 23 22 21 20 18 17 16 16 16 15 13 12 12 11 10 11 10 10 10 10 9 10 12 14 16 18 20 21 21 21 21 22 23 24 25 25 25
26 26 26 26 25 23 22 21 20 19 18 18 18 17 16 15 15 14 13 13 13 14 14 13 12 12 12 13 15 17 18 21 22 23 22 21 21 21 22 23 23 23
26 26 26 25 24 23 22 22 22 21 21 21 21 20 19 18 17 16 16 16 16 17 17 17 16 17 17 18 19 21 23 25 25 26 26 25 25 24 23 24 23 23
26 26 26 25 25 24 23 23 23 23 23 23 24 23 22 21 19 19 20 20 20 21 21 21 21 22 22 21 23 25 28 29 30 31 32 31 31 30 29 29 28 28
26 26 26 26 25 24 24 24 24 25 25 26 26 26 25 24 23 23 23 23 24 24 25 26 26 26 26 26 27 29 31 33 34 35 36 35 35 35 34 34 33 34
25 25 25 26 25 25 25 26 26 26 27 27 28 28 28 27 27 26 26 27 28 28 29 30 31 31 31 31 31 32 33 35 38 39 39 38 39 40 40 39 39 39
25 25 25 25 25 26 26 27 27 28 28 29 29 30 30 30 30 30 30 31 31 32 33 34 35 35 36 36 35 35 35 37 40 42 42 42 42 43 43 44 45 44
Wind_Direction
204 202 202 205 207 209 209 211 212 213 215 218 221 226 231 233 234 239 257 281 302 316 318 309 295 284 282 289 301 312 312 311 315 326 341 345 343 348 355 4 5 1
209 207 208 211 214 216 217 217 218 219 222 224 227 230 233 235 236 239 248 262 280 299 311 312 304 290 280 281 291 303 304 298 299 310 329 338 336 343 355 6 7 3
213 213 214 216 219 222 225 225 224 225 227 229 232 234 236 236 236 239 245 254 265 282 297 307 308 298 283 276 280 291 295 289 285 293 311 326 325 328 337 347 357 3
218 218 219 221 224 227 231 232 231 232 232 234 236 238 240 240 239 240 246 253 259 268 282 295 304 302 289 275 273 280 284 281 276 280 294 310 314 316 316 320 334 347
222 222 223 225 227 230 234 236 237 238 239 240 241 243 245 245 244 243 247 253 256 260 271 284 295 300 293 278 269 271 275 274 269 270 280 293 303 307 309 310 316 318
229 228 229 230 232 234 237 239 241 243 244 246 247 247 248 249 248 247 248 251 254 258 265 275 286 293 293 282 269 265 269 269 265 263 269 280 291 299 307 312 311 302
235 236 237 237 238 239 240 242 244 245 247 249 251 251 251 251 250 249 249 250 254 257 260 267 277 286 290 285 271 262 264 266 264 259 262 270 281 290 301 310 308 302
237 238 239 241 242 243 244 245 246 247 249 250 252 253 252 251 251 250 250 249 252 255 257 262 270 279 284 284 273 262 259 261 262 258 257 261 270 278 285 294 300 302
239 240 242 243 244 245 247 248 249 250 252 253 254 254 253 252 251 251 251 250 250 253 254 257 264 273 279 280 274 263 256 258 261 259 256 257 261 267 273 282 290 294
241 243 245 245 245 246 248 249 250 251 253 255 256 256 257 256 254 253 253 252 251 252 252 255 260 267 273 276 273 264 256 255 258 261 258 255 256 260 266 276 284 290
241 243 245 246 247 247 249 250 251 253 254 256 258 259 259 258 257 255 253 253 253 252 251 254 258 263 268 271 271 265 257 253 256 261 262 258 256 258 261 269 278 286
242 244 245 246 247 247 249 252 254 256 258 259 260 261 260 260 259 257 255 253 253 252 251 253 257 261 265 268 268 264 257 253 255 261 265 263 260 259 260 264 271 279
244 245 245 245 246 247 249 253 256 260 263 264 264 264 263 262 260 258 256 253 251 252 251 252 255 259 263 265 265 261 256 254 254 259 266 267 265 262 261 262 266 273
247 247 245 244 245 247 250 254 258 263 266 267 267 266 264 262 260 258 255 253 251 251 251 252 254 256 259 262 262 259 255 253 253 256 263 268 268 266 264 262 264 269
247 248 247 245 245 246 249 254 259 263 265 265 265 264 262 260 258 256 254 252 251 251 252 253 254 255 256 258 259 258 254 251 252 254 259 265 270 270 269 267 265 266
243 245 247 247 245 245 248 253 258 262 263 263 262 260 260 258 258 256 253 251 251 251 252 254 255 254 255 256 258 258 254 251 251 255 259 264 269 273 273 271 268 266
239 242 245 247 247 246 250 254 258 259 259 258 257 256 255 254 253 252 249 247 247 248 250 252 254 253 252 254 257 259 258 255 253 256 260 264 268 271 273 272 270 267
239 241 243 245 246 247 249 253 255 254 253 251 249 247 245 243 240 238 237 237 240 244 248 251 252 252 252 253 257 259 260 260 258 257 260 264 267 269 270 269 268 267
239 240 240 240 242 244 246 248 249 248 246 244 240 237 235 232 228 226 226 227 230 235 242 248 250 253 256 257 259 261 263 264 264 263 263 266 268 270 270 269 268 267
239 239 238 237 239 240 241 242 242 240 238 237 235 234 233 230 226 224 223 224 227 228 232 240 247 252 256 260 263 265 267 269 270 270 269 270 271 271 272 271 270 270
238 237 236 237 239 240 239 238 237 235 233 233 233 234 233 230 227 227 228 230 233 235 233 236 244 249 253 260 265 267 269 271 273 275 275 275 273 272 273 274 273 273
237 236 236 238 240 240 238 236 235 234 233 233 235 235 235 235 236 238 239 239 241 243 242 240 241 245 249 256 263 268 270 271 273 275 276 276 276 275 275 275 275 275
235 234 235 237 239 240 239 237 237 237 236 237 238 240 240 242 244 246 248 250 251 251 251 249 247 247 247 251 260 268 272 273 273 274 275 277 277 277 277 276 276 276
235 235 236 239 241 243 243 242 242 243 244 245 246 247 248 248 249 251 254 258 260 261 261 260 259 256 253 254 259 265 269 272 273 274 275 276 276 276 276 276 276 276
238 239 241 244 246 248 248 249 251 253 255 256 256 255 255 255 255 256 257 260 262 263 263 264 264 263 261 261 263 265 267 270 272 273 274 276 278 278 277 274 273 271
241 242 244 246 249 251 253 255 257 260 262 264 263 261 261 261 262 263 264 264 265 266 267 267 268 267 266 267 268 270 272 273 275 276 277 280 282 283 280 277 274 270